Regional Weather Roundup
Issued by NWS

Home | Current Version | Previous Version | Text Only | Print | Product List | Glossary Off
Versions: 1 2 3 4 5 6 7 8 9 10 11 12 13 14 15 16 17 18 19 20 21 22 23 24 25 26 27 28 29 30 31 32 33 34 35 36 37 38 39 40 41 42 43 44 45 46 47 48 49 50

000
ASUS43 KMPX 241401
RWRMN
WEATHER ROUNDUP FOR MINNESOTA
NATIONAL WEATHER SERVICE TWIN CITIES/CHANHASSEN MN
800 AM CST TUE JAN 24 2017


NOTE: "FAIR" INDICATES FEW OR NO CLOUDS BELOW 12,000 FEET WITH NO
SIGNIFICANT WEATHER AND/OR OBSTRUCTIONS TO VISIBILITY. N/A MEANS
CURRENT SKY AND/OR WEATHER CONDITIONS ARE NOT AVAILABLE.

MNZ060>063-068>070-241500-
   Twin Cities Metro

CITY           SKY/WX    TMP DP  RH WIND       PRES   REMARKS
TWIN CITIES    CLOUDY    32  25  75 NE3       29.89S
ST PAUL        CLOUDY    31  27  85 N6        29.91S WCI  25
CRYSTAL        CLOUDY    31  23  72 VRB3      29.88S
BLAINE         CLOUDY    34  28  80 N5        29.89R WCI  30
LAKEVILLE      CLOUDY    28  28 100 CALM      29.89R
EDEN PRAIRIE   CLOUDY    32  25  75 N3        29.89R
SOUTH ST PAUL  CLOUDY    32  27  81 CALM      29.90S
LAKE ELMO      CLOUDY    32  28  86 CALM      29.90S
$$
MNZ001>005-007-008-013>017-022>024-027-028-241500-
   Northwest Minnesota

CITY           SKY/WX    TMP DP  RH WIND       PRES   REMARKS
BEMIDJI        CLOUDY    27  24  88 SW7       29.85S WCI  19
HALLOCK        CLOUDY    27  23  86 SW7       29.85S WCI  19
ROSEAU         CLOUDY    25  21  86 SW9       29.84F WCI  15
WARROAD        CLOUDY    25  19  80 S6        29.84F WCI  18
THIEF RVR FALL CLOUDY    24  20  84 W9        29.87S WCI  14
CROOKSTON      CLOUDY    25  21  86 SW8       29.89S WCI  16
FOSSTON        CLOUDY    23  19  86 W6        29.87S WCI  16
DETROIT LAKES  CLOUDY    30  27  86 CALM      29.87S
MOORHEAD       CLOUDY    27  23  86 N9        29.90S WCI  17
PARK RAPIDS    CLOUDY    28  21  75 NW7       29.85S WCI  21
MAHNOMEN       CLOUDY    26  22  87 NW7       29.87S WCI  18
$$
MNZ006-009>011-018-025>026-241500-
   North Central Minnesota

CITY           SKY/WX    TMP DP  RH WIND       PRES   REMARKS
BAUDETTE       CLOUDY    24  20  84 W9        29.84S WCI  14
FLAG ISLAND    CLOUDY    25  23  93 S7        29.83S WCI  17
INTL FALLS     CLOUDY    27  21  78 W8        29.85R WCI  19
WASKISH        CLOUDY    27  25  93 SW12      29.86R WCI  16
BIG FORK       CLOUDY    28  23  80 W3        29.86R
LONGVILLE      CLOUDY    28  23  80 N3        29.86S
GRAND RAPIDS   CLOUDY    28  24  85 N3        29.87S
CRANE LAKE     CLOUDY    28  25  86 W3        29.87S
ORR            CLOUDY    27  21  80 CALM      29.83R
COOK           CLOUDY    28  27  93 CALM      29.85R
WALKER         CLOUDY    27  22  84 W3        29.86S
$$
MNZ012-019>021-037-241500-
   Northeast Minnesota

CITY           SKY/WX    TMP DP  RH WIND       PRES   REMARKS
DULUTH         CLOUDY    31  25  78 NW9       29.85R WCI  23
ELY            CLOUDY    28  27  93 NW3       29.84R
HIBBING        CLOUDY    28  25  88 CALM      29.86R
EVELETH        CLOUDY    32  27  81 W7        29.86R WCI  26
DULUTH HARBOR  CLOUDY    34  27  75 NW6       29.90R WCI  29
TWO HARBORS    CLOUDY    34  28  80 CALM      29.84R
SILVER BAY     CLOUDY    34  28  80 CALM      29.83R
GRAND MARAIS     N/A     36  33  89 CALM      29.84
G MARAIS ARPRT CLOUDY    30  27  86 NW3       29.81R
$$
MNZ029>031-032-039>041-046>048-054>057-064-241500-
   West Central Minnesota

CITY           SKY/WX    TMP DP  RH WIND       PRES   REMARKS
FERGUS FALLS   CLOUDY    28  25  86 CALM      29.93R
WHEATON        FLURRIES  30  27  86 N5        29.90F WCI  25
MORRIS         CLOUDY    30  28  93 NE5       29.86F WCI  25
ALEXANDRIA     CLOUDY    29  27  92 CALM      29.87S
ELBOW LAKE     CLOUDY    29  27  92 CALM      29.88S
WADENA         CLOUDY    27  25  93 CALM      29.87R
GLENWOOD       CLOUDY    28  27  93 CALM      29.87F
APPLETON       CLOUDY    30  28  93 CALM      29.88S
ORTONVILLE     CLOUDY    30  27  86 CALM      29.87S
MADISON        CLOUDY    34  30  86 E5        29.88S WCI  30
WILLMAR        CLOUDY    30  27  86 CALM      29.89S
$$
MNZ033>034-036-042>043-049>051-058-059-241500-
   Central Minnesota

CITY           SKY/WX    TMP DP  RH WIND       PRES   REMARKS
ST CLOUD       CLOUDY    31  26  82 CALM      29.89R
SAUK CENTRE    CLOUDY    29  26  87 CALM      29.89R
PAYNESVILLE    CLOUDY    30  29  99 CALM      29.89S
AITKIN         CLOUDY    32  23  69 CALM      29.86S
PINE RIVER     CLOUDY    28  25  86 CALM      29.91R
BRAINERD       CLOUDY    30  24  78 VRB5      29.88R WCI  25
STAPLES        CLOUDY    28  25  86 CALM      29.88R
LONG PRAIRIE   CLOUDY    30  27  86 CALM      29.88S
LITTLE FALLS   CLOUDY    30  25  80 CALM      29.89S
LITCHFIELD     CLOUDY    30  27  86 CALM      29.89S
BUFFALO        CLOUDY    31  25  80 CALM      29.90F
MAPLE LAKE     CLOUDY    31  28  85 NW3       29.90S
HUTCHINSON     CLOUDY    31  28  88 E3        29.90S
$$
MNZ037-044-045-052-053-241500-
   East Central Minnesota

CITY           SKY/WX    TMP DP  RH WIND       PRES   REMARKS
PRINCETON      CLOUDY    32  27  80 CALM      29.90R
MORA           CLOUDY    32  27  80 CALM      29.90R
CAMBRIDGE      CLOUDY    34  25  69 CALM      29.88S
RUSH CITY      CLOUDY    32  27  80 CALM      29.90R
MOOSE LAKE     CLOUDY    32  27  80 W3        29.86S
HINCKLEY       CLOUDY    32  28  86 CALM      29.89R
CLOQUET        CLOUDY    30  27  86 CALM      29.86R
MCGREGOR       CLOUDY    32  27  80 NW3       29.87S
$$
MNZ071>073-080-081-089-090-097-098-241500-
   Southwest Minnesota

CITY           SKY/WX    TMP DP  RH WIND       PRES   REMARKS
MONTEVIDEO     CLOUDY    30  28  93 CALM      29.90S
GRANITE FALLS  CLOUDY    32  28  86 E3        29.89S
CANBY          CLOUDY    32  29  90 CALM      29.87S
MARSHALL       CLOUDY    30  27  88 E8        29.86F WCI  22
REDWOOD FALLS  CLOUDY    32  26  78 E5        29.87F WCI  27
OLIVIA         CLOUDY    32  28  86 E3        29.88S
PIPESTONE      CLOUDY    30  30 100 E10       29.80S FOG     WCI  21
WINDOM         CLOUDY    30  28  93 E6        29.85S WCI  24
WORTHINGTON    CLOUDY    30  28  92 E13       29.83S WCI  20
JACKSON        CLOUDY    30  28  93 E10       29.84F WCI  21
TRACY          CLOUDY    31  29  92 E7        29.85S WCI  24
SLAYTON        CLOUDY    29  28  96 E8        29.84R WCI  21
$$
MNZ065>067-074>077-082>085-091>093-241500-
   South Central Minnesota

CITY           SKY/WX    TMP DP  RH WIND       PRES   REMARKS
MANKATO        CLOUDY    31  26  82 NE7       29.88F WCI  24
NEW ULM        CLOUDY    30  27  86 NE3       29.87F
ST JAMES       CLOUDY    30  28  93 E3        29.88S
FAIRMONT       CLOUDY    30  27  88 E8        29.87R WCI  22
GLENCOE        CLOUDY    32  29  90 CALM      29.89S
OWATONNA       CLOUDY    30  27  86 N3        29.87F
WASECA         CLOUDY    32  28  86 NE10      29.88F WCI  24
ALBERT LEA     CLOUDY    30  28  93 E3        29.86R
$$
MNZ078>079-086>088-094>096-241500-
   Southeast Minnesota

CITY           SKY/WX    TMP DP  RH WIND       PRES   REMARKS
ROCHESTER      CLOUDY    29  27  92 NE7       29.87R WCI  22
RED WING       CLOUDY    34  27  75 CALM      29.89R
STANTON        CLOUDY    32  29  88 CALM      29.88S FOG
DODGE CENTER   CLOUDY    28  27  93 MISG      29.86S
WINONA         CLOUDY    34  30  86 CALM      29.91R
AUSTIN         CLOUDY    30  27  86 N3        29.86S
PRESTON        CLOUDY    29  26  89 NE5       29.87S WCI  24
$$
ABBREVIATIONS USED IN REMARKS
   TC - TEMPERATURES IN CELSIUS
  WCI - WIND CHILL INDEX
   HX - HEAT INDEX
  VSB - VISIBILITY
$$




USA.gov is the U.S. government's official web portal to all federal, state and local government web resources and services.